Location: Moscow Pond
(43.6842°N, 73.2366°W)
Time: 20:43:53
(UTC+00:00)

Gbstr 26 Del rocket - Pass Details

Date: 08 November 2025
Orbit: 489 x 1219 km, 51.8° (Epoch: 10 December)

Event Time Altitude Azimuth Distance (km) Brightness Sun altitude
Exits shadow 09:05:22 71° 94° (E) 758 3.5 -27.9°
Drops below altitude 10° 09:10:32 10° 59° (ENE) 2,438 6.9 -26.9°
Sets 09:13:19 0° 59° (ENE) 3,506 7.8 -26.4°
